Location: Unspecified
(49.9820°N, 20.4363°E)
Time: 09:52:53
(UTC+02:00)

ISS - Pass Details

Date: 15 July 2018
Orbit: 402 x 408 km, 51.6° (Epoch: 23 July)

Event Time Altitude Azimuth Distance (km) Brightness Sun altitude
Exits shadow 00:16:57 14° 93° (E) 1,243 -1.5 -18.2°
Drops below altitude 10° 00:17:37 10° 86° (E) 1,471 -1.0 -18.2°
Sets 00:19:53 0° 74° (ENE) 2,336 0.2 -18.2°
